Regional Weather Roundup
Issued by NWS Bismarck, ND

Home | Current Version | Previous Version | Text Only | Print | Product List | Glossary On
Versions: 1 2 3 4 5 6 7 8 9 10 11 12 13 14 15 16 17 18 19 20 21 22 23 24 25 26 27 28 29 30 31 32 33 34 35 36 37 38 39 40 41 42 43 44 45 46 47 48 49 50
000
ASUS43 KBIS 011520
RWRBIS

NWR BROADCAST TEXT
NATIONAL WEATHER SERVICE BISMARCK ND
1000 AM CDT WED OCT 01 2014

NOTE: "FAIR" INDICATES FEW OR NO CLOUDS BELOW 12,000 FEET WITH NO
SIGNIFICANT WEATHER AND/OR OBSTRUCTIONS TO VISIBILITY.


CITY           SKY/WX    TMP DP  RH WIND       PRES   REMARKS
WILLISTON      CLOUDY    53  49  86 W20G28    29.67R
MINOT          CLOUDY    54  52  93 W13       29.56R FOG
MINOT AFB      DRIZZLE   55  55 100 W13       29.55R
BISMARCK       PTSUNNY   58  50  75 W18G28    29.68R
DICKINSON      CLOUDY    51  47  86 W22G28    29.71R
GARRISON         N/A     55  51  86 W17G28    29.60R
HETTINGER ARPT CLOUDY    52  46  80 W23G30    29.77R
JAMESTOWN      PTSUNNY   58  53  84 W14G21    29.63R
BEACH            N/A     48  48 100 W22G28    29.77R
CARRINGTON     CLOUDY    57  57 100 W17G23    29.62R
CROSBY           N/A    N/A N/A N/A MISG        N/A
HARVEY         CLOUDY    55  54  94 W14       29.59R
HAZEN          CLOUDY    55  48  76 W18       29.66R
LINTON         FAIR      57  54  88 W12       29.71R
MANDAN         CLOUDY    55  50  82 W18       29.69R
OAKES            N/A     57  55  94 SW14      29.68R
RUGBY          PTSUNNY   54  54 100 W14G21    29.54R
STANLEY        FOG       50  50 100 W16G23    29.60R VSB 1
TIOGA          LGT RAIN  50  50 100 W20G28    29.64R
WATFORD CITY   CLOUDY    52  48  87 W20G25    29.67R
$$

CITY           SKY/WX    TMP DP  RH WIND       PRES   REMARKS
GRAND FORKS    PTSUNNY   63  54  72 SW16G25   29.58S
GRAND FORKS AF CLOUDY    61  57  88 S16       29.58R
DEVILS LAKE    CLOUDY    57  48  72 SW18      29.54S
FARGO          PTSUNNY   63  56  78 S16       29.65R
CANDO          CLOUDY    55  54  94 SW16      29.54R
CAVALIER       CLOUDY    57  52  82 S12       29.53R
GRAFTON        CLOUDY    59  54  82 S14G23    29.55S
GWINNER        SUNNY     61  54  77 SW12      29.69S
LANGDON        CLOUDY    55  52  88 SW20G28   29.52R
ROLLA          CLOUDY    50  50 100 W16       29.52R
WALHALLA         N/A     57  54  88 SW12G22   29.51R
$$

CITY           SKY/WX    TMP DP  RH WIND       PRES   REMARKS
ABERDEEN       PTSUNNY   61  52  72 W12       29.71R
MOBRIDGE       PTSUNNY   59  52  77 W6        29.72R
BUFFALO          N/A     51  47  86 W21G26    29.75R
RAPID CITY     PTSUNNY   55  45  68 N10       29.83R
GLASGOW        PTSUNNY   50  43  77 W15       29.78R
SIDNEY         PTSUNNY   54  46  76 W18G29    29.73S
GLENDIVE       CLOUDY    50  45  81 W20G29    29.80R
MILES CITY     CLOUDY    50  41  71 NW15      29.86R
BAKER          CLOUDY    48  45  89 W14G24    29.80R
$$

CITY           SKY/WX    TMP DP  RH WIND       PRES   REMARKS
BILLINGS       PTSUNNY   47  36  65 NW8       29.96R
GREAT FALLS    PTSUNNY   44  41  89 SW9       29.97R
REGINA         LGT RAIN  50  50 100 NW20G30   29.60R
ESTEVAN        LGT RAIN  52  52 100 NW17G23   29.58R FOG
$$




USA.gov is the U.S. government's official web portal to all federal, state and local government web resources and services.